Regional Weather Roundup
Issued by NWS

Home | Current Version | Previous Version | Text Only | Print | Product List | Glossary Off
Versions: 1 2 3 4 5 6 7 8 9 10 11 12 13 14 15 16 17 18 19 20 21 22 23 24 25 26

000
ASUS45 KSLC 130810
RWRUT

UTAH REGIONAL WEATHER ROUNDUP
NATIONAL WEATHER SERVICE SALT LAKE CITY UT
100 AM MST WED DEC 13 2017

UTZ001>011-023>025-130900-

NORTHERN UTAH

CITY           SKY/WX    TMP DP  RH WIND       PRES   REMARKS
BRIGHAM CITY   CLOUDY    22  19  90 CALM      30.42F
HILL AFB       FOG       23  21  93 CALM      30.37F VSB 7/8
LOGAN          CLOUDY    20  14  77 CALM      30.39F
OGDEN          CLOUDY    23  22  96 N3        30.39S FOG
SALT LAKE CITY FOG       24  22  91 CALM      30.39F VSB 3/4
TOOELE VALLEY  FOG       23  21  93 CALM      30.39F VSB 1/4
WENDOVER       MOCLDY    10   7  87 CALM      30.40F
HEBER CITY       N/A     14  10  85 CALM      30.34F
WEST JORDAN    CLOUDY   N/A N/A N/A CALM      30.37F VSB 1/4

$$

UTZ011>015-024>027-130900-

CENTRAL/NORTHEAST UTAH

CITY           SKY/WX    TMP DP  RH WIND       PRES   REMARKS
PROVO AIRPORT  HAZE      21  19  92 CALM      30.39F VSB<1/4
MOAB/CANYONLAN MOCLDY    19  -3  38 CALM      30.28F
DELTA          MOCLDY    14   9  79 CALM      30.37S
PRICE          PTCLDY    29   2  31 CALM      30.26F
RICHFIELD      CLEAR     14   1  57 CALM      30.36F
ROOSEVELT      CLOUDY    18   9  68 CALM      30.33S
VERNAL         CLOUDY    20   8  60 W3        30.29F

$$

UTZ013>016-019>022-027-130900-

SOUTHERN UTAH

CITY           SKY/WX    TMP DP  RH WIND       PRES   REMARKS
BRYCE CANYON   PTCLDY    16   3  56 W9        30.36F WCI   4
CEDAR CITY     PTCLDY    17   7  64 NE3       30.32F
MILFORD        MOCLDY    17   5  59 W3        30.34F
ST GEORGE      MOSUNNY   39   4  23 S5        30.25F
HANKSVILLE     MOCLDY    18  -6  35 CALM      30.31F
KANAB          CLEAR     32   3  29 NE7       30.31F WCI  26
BLANDING         N/A     31   3  31 CALM      30.34F

$$

REGIONAL REPORTS     COLORADO/ARIZONA

CITY           SKY/WX    TMP DP  RH WIND       PRES   REMARKS
CRAIG, CO      CLOUDY    11   7  84 CALM      30.28F
GRAND JUNCTION CLEAR     26   9  48 E7        30.29F WCI  18
RIFLE, CO      CLOUDY    22  10  60 CALM      30.32F
MONTROSE, CO   CLOUDY    22   9  57 SE9       30.33F WCI  12
CORTEZ, CO     CLOUDY    14   2  58 NE6       30.28F WCI   5
COLORADO CITY    N/A     28   3  34 SE5       30.30S WCI  23
PAGE, AZ       PTCLDY    33  15  47 CALM      30.28F
GRAND CANYON   MOCLDY    23   6  48 E6        30.31S WCI  16
KINGMAN, AZ    PTCLDY    36   3  25 E5        30.19F WCI  32
FLAGSTAFF, AZ  PTCLDY    17  -3  41 CALM      30.29F

$$

REGIONAL REPORTS    NEVADA/IDAHO/WYOMING

CITY           SKY/WX    TMP DP  RH WIND       PRES   REMARKS
LAS VEGAS, NV  CLEAR     48   1  14 S7        30.16F
ELY, NY        MOCLDY    17   1  49 S14       30.38S WCI   3
ELKO, NV       CLOUDY    11   8  88 S5        30.39F WCI   3
POCATELLO, ID  FOG       20  19  96 S7        30.39F VSB 3/4 WCI  11
BURLEY, ID     FOG       21  17  84 CALM      30.40F VSB 1
FORT BRIDGER,    N/A     35   2  25 W8        30.30F WCI  28
EVANSTON, WY   CLOUDY    29  12  49 SW13      30.30F WCI  19
ROCK SPRINGS,  CLOUDY    32   3  29 W13       30.25F WCI  22

$$




USA.gov is the U.S. government's official web portal to all federal, state and local government web resources and services.